Meteo Giornale » Osservazioni meteo Gran Bretagna » Edinburgh

ore: 18:20 - Osservazioni Meteo Edinburgh
Lat. 55° 57' N Lon. 3° 21' W Alt. 41 metri s.l.m.

nuvoloso

15 °C

Nuvoloso

Temp. 24 Ore

13 °C

19 °C

Ovest

25.9 Km/h

Dew point 10 °C

Umidità 72 %

Visibilità  10 Km

Il sole sorge alle ore 06:16

Il sole tramonta alle ore 20:11

Data e Ora Cielo e Fenomeni T °C DP °C Um. % Pres. hPa Vis. km Vento km/h
Oggi h: 18:20 nuvoloso Nuvoloso 15 10 72 1011 10 O 25.9
Oggi h: 17:50 nuvoloso Nuvoloso 17 10 63 1011 10 O 20.3
Oggi h: 17:20 nuvoloso Nuvoloso 17 11 67 1011 10 O 24
Oggi h: 16:50 nuvoloso Nuvoloso 17 11 67 1010 10 O 24
Oggi h: 16:20 nuvoloso Nuvoloso 18 10 59 1010 10 O 22.2
Oggi h: 15:50 nuvoloso Nuvoloso 19 12 63 1009 10 O 24
Oggi h: 15:20 nuvoloso Nuvoloso 19 12 63 1009 10 O 20.3
Oggi h: 14:50 nuvoloso Nuvoloso 19 12 63 1009 10 O 24
Oggi h: 14:20 nuvoloso Nuvoloso 18 12 67 1008 10 O 18.5
Oggi h: 13:50 nuvoloso Nuvoloso 19 12 63 1008 10 O 13
Oggi h: 13:20 nuvoloso Nuvoloso 18 12 67 1008 10 O 20.3
Oggi h: 12:50 nuvoloso Nuvoloso 18 13 72 1008 10 O 16.7
Oggi h: 12:20 nuvoloso Nuvoloso 18 12 67 1007 10 O 20.3
Oggi h: 11:50 nuvoloso Nuvoloso 19 13 68 1007 10 O 18.5
Oggi h: 11:20 nuvoloso Nuvoloso 18 13 72 1007 10 O 18.5
Oggi h: 10:50 nuvoloso Nuvoloso 18 14 77 1006 10 O 11.1
Oggi h: 10:20 nuvoloso Nuvoloso 17 14 82 1006 10 O 16.7
Oggi h: 09:50 poco_nuvoloso Poco Nuvoloso 16 14 87 1006 10 O/SO 14.8
Oggi h: 09:20 nuvoloso Nuvoloso 16 14 87 1005 10 O/SO 14.8
Oggi h: 08:50 nuvoloso Nuvoloso 15 14 93 1005 10 O/SO 7.4
Oggi h: 08:20 molto_nuvoloso Molto Nuvoloso 15 14 93 1005 10 O 9.3
Oggi h: 07:50 poco_nuvoloso Poco Nuvoloso 14 14 100 1005 10 O 7.4
Oggi h: 07:20 poco_nuvoloso Nebbia nelle vicinanze 14 14 100 1004 7 O/SO 7.4
Oggi h: 06:50 poco_nuvoloso Nebbia nelle vicinanze 13 13 100 1004 7 O 7.4
Oggi h: 06:20 poco_nuvoloso Poco Nuvoloso 13 13 100 1003 7 O 7.4
Oggi h: 05:50 poco_nuvoloso Poco Nuvoloso 13 13 100 1003 4 O 7.4
Oggi h: 05:20 poco_nuvoloso Poco Nuvoloso 13 13 100 1003 9 O/SO 7.4
Oggi h: 04:50 nuvoloso Nuvoloso 13 13 100 1003 9 N 5.5
Oggi h: 04:20 molto_nuvoloso Molto Nuvoloso 13 13 100 1003 9 O/SO 9.3
Oggi h: 03:50 coperto Coperto 14 14 100 1003 6 N 5.5
Oggi h: 03:20 molto_nuvoloso Molto Nuvoloso 14 13 93 1003 6 O/SO 7.4
Oggi h: 02:50 foschia Foschia 14 14 100 1002 5 N 3.7
Oggi h: 02:20 foschia Foschia 14 14 100 1003 1 N 3.7
Oggi h: 01:50 foschia Foschia 14 14 100 1002 1 N 3.7
Oggi h: 01:20 nebbia Nebbia 14 14 100 1002 0.9 N 5.5
Oggi h: 00:50 foschia Foschia 14 14 100 1002 1 N 1.8
Oggi h: 00:20 foschia Foschia 14 14 100 1002 1 N 1.8
Ieri h: 23:50 foschia Foschia 14 14 100 1002 1 N 1.8
Ieri h: 23:20 foschia Foschia 14 14 100 1002 3 N 1.8
Ieri h: 22:50 foschia Foschia 14 14 100 1003 5 N 1.8
Ieri h: 22:20 nuvoloso Nuvoloso 14 14 100 1002 6 N 5.5
Ieri h: 21:50 poco_nuvoloso Poco Nuvoloso 14 14 100 1002 9 N 3.7
Ieri h: 21:20 molto_nuvoloso Molto Nuvoloso 15 14 93 1003 10 E 7.4
Ieri h: 20:50 coperto_pioggia Pioggia 15 14 93 1002 9 N 5.5
Ieri h: 20:20 molto_nuvoloso Pioggia nelle vicinanze 15 14 93 1003 10 N 5.5
Ieri h: 19:50 molto_nuvoloso Pioggia nelle vicinanze 15 14 93 1003 10 E/NE 7.4
Ieri h: 19:20 molto_nuvoloso Pioggia nelle vicinanze 16 14 87 1003 10 N 5.5
Ieri h: 18:50 molto_nuvoloso Pioggia nelle vicinanze 16 14 87 1003 10 N 5.5